Location: Bloomsdale Volunteer Fire Department
(38.0110°N, 90.2222°W)
Time: 06:12:57
(UTC+00:00)

BlueWalker 3 - Visible Passes

Search period start: 14 October 2024 00:00
Search period end: 24 October 2024 00:00
Orbit: 472 x 484 km, 53.2° (Epoch: 13 October)

Date Brightness Start Highest point End Pass type
(mag) Time Alt. Az. Time Alt. Az. Time Alt. Az.
15 Oct 4.5 11:32:53 10° N 11:33:49 11° NNE 11:34:45 10° NNE visible
16 Oct 4.6 11:04:48 10° N 11:05:12 10° NNE 11:05:37 10° NNE visible
18 Oct 3.6 11:43:39 10° NNW 11:46:53 28° NNE 11:50:05 10° E visible
19 Oct 3.7 11:15:07 10° NNW 11:18:13 25° NNE 11:21:19 10° E visible
20 Oct 3.9 10:47:06 13° NNW 10:49:32 23° NNE 10:52:32 10° E visible
21 Oct 3.9 10:19:54 19° N 10:20:49 21° NNE 10:23:40 10° E visible
22 Oct 4.4 09:52:45 18° NE 09:52:45 18° NE 09:54:46 10° ENE visible
22 Oct 1.8 11:26:57 12° NW 11:30:19 65° SW 11:33:58 10° SE visible
23 Oct 5.3 09:25:42 11° ENE 09:25:42 11° ENE 09:25:50 10° ENE visible
23 Oct 1.7 10:59:54 30° NW 11:01:35 77° SW 11:05:16 10° SE visible
